When you browse on this site, cookies collect data to enhance your experience and personalize the content and advertising you see.
Visit our Privacy Policy to learn more. By continuing to use the site, you agree to this use of cookies and data.
  • en Suisse
  • Liste des pays
  • À 7 jours
  • Température de l'eau
  • Carte météo
  • Widgets météo
  • user-avatar
    Se connecter

    Météo par heure à Krutovka

    Ce jour, 17 Septembre, Mardi

    Heure Température Précipitation Vent Pression Humidité
    00:00 +8°C° 0 mm 5 m/s 735 mmHg 88%
    01:00 +8°C° 0 mm 5 m/s 735 mmHg 89%
    02:00 +8°C° 0 mm 5 m/s 735 mmHg 91%
    03:00 +8°C° 0 mm 5 m/s 735 mmHg 92%
    04:00 +8°C° 0 mm 5 m/s 735 mmHg 93%
    05:00 +7°C° 0 mm 5 m/s 735 mmHg 94%
    06:00 +8°C° 0.1 mm 5 m/s 735 mmHg 87%
    07:00 +9°C° 0.1 mm 6 m/s 735 mmHg 80%
    08:00 +10°C° 0.1 mm 7 m/s 735 mmHg 73%
    09:00 +11°C° 0.1 mm 7 m/s 735 mmHg 68%
    10:00 +11°C° 0.1 mm 8 m/s 735 mmHg 62%
    11:00 +12°C° 0.1 mm 8 m/s 735 mmHg 56%
    12:00 +12°C° 0.1 mm 8 m/s 735 mmHg 55%
    13:00 +12°C° 0.1 mm 8 m/s 735 mmHg 55%
    14:00 +14°C° 0.1 mm 7 m/s 735 mmHg 54%
    15:00 +13°C° 0.1 mm 6 m/s 735 mmHg 60%
    16:00 +12°C° 0.1 mm 5 m/s 734 mmHg 66%
    17:00 +11°C° 0.1 mm 4 m/s 734 mmHg 72%
    18:00 +10°C° 0 mm 4 m/s 735 mmHg 76%
    19:00 +9°C° 0 mm 3 m/s 735 mmHg 80%
    20:00 +8°C° 0 mm 3 m/s 735 mmHg 84%
    21:00 +7°C° 0 mm 3 m/s 735 mmHg 84%
    22:00 +7°C° 0 mm 3 m/s 735 mmHg 84%
    23:00 +6°C° 0 mm 4 m/s 734 mmHg 85%

    Demain, 18 Septembre, Mercredi

    Heure Température Précipitation Vent Pression Humidité
    00:00 +7°C° 0 mm 3 m/s 734 mmHg 84%
    01:00 +7°C° 0 mm 3 m/s 734 mmHg 84%
    02:00 +7°C° 0 mm 3 m/s 734 mmHg 83%
    03:00 +5°C° 0 mm 3 m/s 734 mmHg 84%
    04:00 +5°C° 0 mm 3 m/s 734 mmHg 84%
    05:00 +5°C° 0 mm 3 m/s 733 mmHg 85%
    06:00 +7°C° 0.2 mm 3 m/s 733 mmHg 84%
    07:00 +7°C° 0.2 mm 3 m/s 733 mmHg 83%
    08:00 +8°C° 0.2 mm 2 m/s 732 mmHg 83%
    09:00 +8°C° 0.4 mm 3 m/s 732 mmHg 84%
    10:00 +9°C° 0.4 mm 3 m/s 732 mmHg 86%
    11:00 +9°C° 0.4 mm 3 m/s 732 mmHg 87%
    12:00 +9°C° 0.5 mm 3 m/s 731 mmHg 84%
    13:00 +10°C° 0.5 mm 2 m/s 731 mmHg 81%
    14:00 +11°C° 0.5 mm 1 m/s 731 mmHg 78%
    15:00 +11°C° 0.4 mm 1 m/s 730 mmHg 80%
    16:00 +10°C° 0.4 mm 2 m/s 730 mmHg 83%
    17:00 +9°C° 0.4 mm 2 m/s 730 mmHg 85%
    18:00 +9°C° 0.2 mm 2 m/s 731 mmHg 87%
    19:00 +8°C° 0.2 mm 3 m/s 731 mmHg 89%
    20:00 +8°C° 0.2 mm 3 m/s 731 mmHg 91%
    21:00 +6°C° 0.1 mm 4 m/s 732 mmHg 91%
    22:00 +6°C° 0.1 mm 4 m/s 733 mmHg 92%
    23:00 +6°C° 0.1 mm 4 m/s 733 mmHg 92%

    Après-demain, 19 Septembre, Jeudi

    Heure Température Précipitation Vent Pression Humidité
    00:00 +6°C° 0 mm 4 m/s 734 mmHg 93%
    01:00 +5°C° 0 mm 4 m/s 735 mmHg 94%
    02:00 +5°C° 0 mm 4 m/s 735 mmHg 95%
    03:00 +4°C° 0 mm 4 m/s 736 mmHg 96%
    04:00 +4°C° 0 mm 4 m/s 737 mmHg 96%
    05:00 +4°C° 0 mm 4 m/s 738 mmHg 96%
    06:00 +5°C° 0 mm 4 m/s 738 mmHg 94%
    07:00 +5°C° 0 mm 5 m/s 739 mmHg 92%
    08:00 +6°C° 0 mm 5 m/s 740 mmHg 90%
    09:00 +7°C° 0 mm 5 m/s 740 mmHg 88%
    10:00 +7°C° 0 mm 5 m/s 740 mmHg 87%
    11:00 +7°C° 0 mm 5 m/s 741 mmHg 86%
    12:00 +7°C° 0 mm 4 m/s 741 mmHg 84%
    13:00 +7°C° 0 mm 4 m/s 741 mmHg 82%
    14:00 +8°C° 0 mm 4 m/s 742 mmHg 80%
    15:00 +8°C° 0 mm 3 m/s 742 mmHg 79%
    16:00 +8°C° 0 mm 3 m/s 742 mmHg 79%
    17:00 +8°C° 0 mm 2 m/s 742 mmHg 79%
    18:00 +7°C° 0.1 mm 2 m/s 742 mmHg 82%
    19:00 +7°C° 0.1 mm 2 m/s 743 mmHg 85%
    20:00 +7°C° 0.1 mm 1 m/s 743 mmHg 87%
    21:00 +7°C° 0.1 mm 1 m/s 743 mmHg 87%
    22:00 +7°C° 0.1 mm 1 m/s 743 mmHg 87%
    23:00 +7°C° 0.1 mm 1 m/s 743 mmHg 86%

    20 Septembre, Vendredi

    Heure Température Précipitation Vent Pression Humidité
    00:00 +5°C° 0 mm 2 m/s 743 mmHg 87%
    01:00 +5°C° 0 mm 2 m/s 743 mmHg 88%
    02:00 +4°C° 0 mm 2 m/s 743 mmHg 89%
    03:00 +4°C° 0 mm 2 m/s 743 mmHg 91%
    04:00 +3°C° 0 mm 2 m/s 743 mmHg 93%
    05:00 +3°C° 0 mm 2 m/s 743 mmHg 95%
    06:00 +4°C° 0 mm 2 m/s 743 mmHg 92%
    07:00 +4°C° 0 mm 2 m/s 743 mmHg 89%
    08:00 +5°C° 0 mm 2 m/s 743 mmHg 86%
    09:00 +6°C° 0 mm 2 m/s 743 mmHg 79%
    10:00 +7°C° 0 mm 2 m/s 743 mmHg 71%
    11:00 +8°C° 0 mm 2 m/s 744 mmHg 64%
    12:00 +9°C° 0 mm 2 m/s 743 mmHg 60%
    13:00 +9°C° 0 mm 3 m/s 743 mmHg 57%
    14:00 +9°C° 0 mm 3 m/s 743 mmHg 53%
    15:00 +8°C° 0 mm 2 m/s 743 mmHg 57%
    16:00 +8°C° 0 mm 2 m/s 743 mmHg 60%
    17:00 +7°C° 0 mm 2 m/s 743 mmHg 64%
    18:00 +6°C° 0 mm 2 m/s 743 mmHg 65%
    19:00 +6°C° 0 mm 1 m/s 744 mmHg 66%
    20:00 +6°C° 0 mm 1 m/s 744 mmHg 67%
    21:00 +6°C° 0 mm 1 m/s 744 mmHg 68%
    22:00 +5°C° 0 mm 1 m/s 744 mmHg 68%
    23:00 +5°C° 0 mm 1 m/s 744 mmHg 69%

    21 Septembre, Samedi

    Heure Température Précipitation Vent Pression Humidité
    00:00 +4°C° 0 mm 2 m/s 744 mmHg 73%
    01:00 +3°C° 0 mm 2 m/s 744 mmHg 76%
    02:00 +3°C° 0 mm 2 m/s 745 mmHg 80%
    03:00 +2°C° 0 mm 3 m/s 745 mmHg 82%
    04:00 +2°C° 0 mm 3 m/s 745 mmHg 84%
    05:00 +2°C° 0 mm 3 m/s 746 mmHg 85%
    06:00 +3°C° 0 mm 3 m/s 746 mmHg 79%
    07:00 +4°C° 0 mm 4 m/s 746 mmHg 73%
    08:00 +4°C° 0 mm 4 m/s 747 mmHg 67%
    09:00 +5°C° 0 mm 4 m/s 747 mmHg 62%
    10:00 +6°C° 0 mm 5 m/s 747 mmHg 56%
    11:00 +7°C° 0 mm 5 m/s 747 mmHg 50%
    12:00 +7°C° 0 mm 5 m/s 747 mmHg 48%
    13:00 +8°C° 0 mm 5 m/s 747 mmHg 46%
    14:00 +8°C° 0 mm 5 m/s 747 mmHg 44%
    15:00 +7°C° 0 mm 5 m/s 747 mmHg 49%
    16:00 +6°C° 0 mm 4 m/s 747 mmHg 54%
    17:00 +5°C° 0 mm 3 m/s 748 mmHg 59%
    18:00 +4°C° 0 mm 3 m/s 748 mmHg 64%
    19:00 +3°C° 0 mm 3 m/s 748 mmHg 70%
    20:00 +2°C° 0 mm 3 m/s 749 mmHg 76%
    21:00 +2°C° 0 mm 3 m/s 749 mmHg 78%
    22:00 +1°C° 0 mm 3 m/s 749 mmHg 80%
    23:00 +1°C° 0 mm 3 m/s 749 mmHg 83%

    22 Septembre, Dimanche

    Heure Température Précipitation Vent Pression Humidité
    00:00 0°C° 0 mm 3 m/s 749 mmHg 84%
    01:00 0°C° 0 mm 3 m/s 749 mmHg 86%
    02:00 0°C° 0 mm 3 m/s 750 mmHg 87%
    03:00 0°C° 0 mm 3 m/s 750 mmHg 89%
    04:00 -1°C° 0 mm 3 m/s 750 mmHg 90%
    05:00 -1°C° 0 mm 3 m/s 750 mmHg 92%
    06:00 +1°C° 0 mm 3 m/s 750 mmHg 86%
    07:00 +2°C° 0 mm 3 m/s 750 mmHg 81%
    08:00 +3°C° 0 mm 4 m/s 750 mmHg 75%
    09:00 +5°C° 0 mm 4 m/s 750 mmHg 69%
    10:00 +6°C° 0 mm 4 m/s 750 mmHg 62%
    11:00 +7°C° 0 mm 4 m/s 750 mmHg 56%
    12:00 +7°C° 0 mm 5 m/s 749 mmHg 61%
    13:00 +7°C° 0 mm 5 m/s 749 mmHg 66%
    14:00 +7°C° 0 mm 5 m/s 748 mmHg 71%
    15:00 +6°C° 0.2 mm 5 m/s 748 mmHg 76%
    16:00 +6°C° 0.2 mm 4 m/s 748 mmHg 82%
    17:00 +5°C° 0.2 mm 4 m/s 748 mmHg 87%
    18:00 +5°C° 0.2 mm 4 m/s 748 mmHg 89%
    19:00 +5°C° 0.2 mm 4 m/s 748 mmHg 92%
    20:00 +5°C° 0.2 mm 4 m/s 748 mmHg 94%
    21:00 +5°C° 0.2 mm 3 m/s 748 mmHg 95%
    22:00 +7°C° 0.2 mm 3 m/s 748 mmHg 96%
    23:00 +7°C° 0.2 mm 3 m/s 748 mmHg 96%
    Voir plus